Regional Weather Roundup
Issued by NWS Mt. Holly, NJ

Home | Current Version | Previous Version | Text Only | Print | Product List | Glossary On
Versions: 1 2 3 4 5 6 7 8 9 10 11 12 13 14 15 16 17 18 19 20 21 22 23 24 25 26 27 28 29 30 31 32 33 34 35 36 37 38 39 40 41 42 43 44 45 46 47 48 49 50
000
ASUS41 KPHI 302312
RWRPHI

REGIONAL WEATHER ROUNDUP
NATIONAL WEATHER SERVICE MOUNT HOLLY NJ
700 PM EDT THU JUL 30 2015

NOTE:  "FAIR" INDICATES FEW OR NO CLOUDS BELOW 12,000 FEET WITH NO
SIGNIFICANT WEATHER AND/OR OBSTRUCTIONS TO VISIBILITY.

 * = STATION DOES NOT REPORT PRECIPITATION (E.G. RAIN, SNOW, ETC.)
        OR FOG.

NJZ015>026-310000-
SOUTHERN NEW JERSEY

CITY           SKY/WX    TMP DP  RH WIND       PRES   REMARKS
POMONA         CLOUDY    77  74  90 N5        29.85S
RIO GRANDE*    CLOUDY    79  75  89 SW8       29.86R
MILLVILLE      CLOUDY    77  74  90 CALM      29.84S
WRIGHTSTOWN    CLOUDY    75  75 100 VRB2      29.82R
MOUNT HOLLY    CLOUDY    76  74  93 CALM      29.83R
TRENTON        PTSUNNY   77  73  87 SW6       29.82S

$$
NJZ001>014-310000-
NORTHERN NEW JERSEY

CITY           SKY/WX    TMP DP  RH WIND       PRES   REMARKS
SUSSEX         PTSUNNY   79  73  82 SW3       29.81R
ANDOVER*         N/A     79  74  84 SW5       29.83R
MORRISTOWN     PTSUNNY   81  75  83 SW8       29.81S
NEWARK         CLOUDY    80  73  79 SW9       29.81R
TETERBORO      PTSUNNY   87  72  60 S12       29.80R HX  93
CALDWELL       PTSUNNY   79  72  79 SW6       29.81R
SOMERVILLE     PTSUNNY   79  73  82 S5        29.80S
ALLAIRE*       CLOUDY    75  70  83 S6        29.84R THUNDER
TOMS RIVER*      N/A     75  73  94 SW3       29.85R

$$
PAZ043-044-047-054-055-060>062-066>071-310000-
EASTERN PENNSYLVANIA

CITY           SKY/WX    TMP DP  RH WIND       PRES   REMARKS
PHILADELPHIA   CLOUDY    80  74  81 SW8       29.84R
NORTH PHILA    CLOUDY    80  70  71 W8        29.84R
BLUE BELL      PTSUNNY   81  73  78 CALM      29.83S
DOYLESTOWN     PTSUNNY   79  71  76 SW8       29.83S
QUAKERTOWN*    MOSUNNY   81  75  83 SW6       29.85R
POTTSTOWN      MOSUNNY   79  74  84 SW5       29.84F
LANCASTER      MOSUNNY   81  66  60 NW7       29.84R
COATESVILLE    MOSUNNY   77  75  94 SW5       29.86S
READING        MOSUNNY   83  74  74 SW7       29.82S
ALLENTOWN      SUNNY     82  74  76 SW10      29.82R
MOUNT POCONO   MOSUNNY   78  63  59 NW7       29.89R
HAZLETON       MOSUNNY   81  61  50 W5        29.91R
WILKES BARRE   MOSUNNY   85  62  46 NW10      29.84R

$$
DEZALL-MDZ008-012-015-019-020-310000-
DELAWARE AND EASTERN MARYLAND

CITY           SKY/WX    TMP DP  RH WIND       PRES   REMARKS
WILMINGTON     PTSUNNY   78  74  87 W6        29.84S
DOVER          CLOUDY    77  77 100 SW7       29.82F
GEORGETOWN     LGT RAIN  79  72  79 W7        29.86S
ABERDEEN       PTSUNNY   79  73  83 SW6       29.85F
PATUXENT       LGT RAIN  76  74  93 S5        29.88R
OCEAN CITY     PTSUNNY   82  75  79 SW13      29.86S
WALLOPS ISLAND PTSUNNY   82  79  90 S12       29.87S HX  92
CAMBRIDGE      CLOUDY    77  72  83 SW7       29.86S
SALISBURY      CLOUDY    82  77  84 CALM      29.85F HX  90

$$
PAZ001-021-NYZ056-072-MDZ011-DCZ001-310000-
OTHER NEARBY LOCATIONS

CITY           SKY/WX    TMP DP  RH WIND       PRES   REMARKS
HARRISBURG     PTSUNNY   86  61  42 NW12      29.83S
STATE COLLEGE  MOSUNNY   81  59  47 W8        29.90S
WILLIAMSPORT   MOSUNNY   87  57  35 W12       29.82R
BINGHAMTON     MOSUNNY   78  60  53 NW7       29.88R
NEW YORK CITY  PTSUNNY   78  74  87 SW6       29.84S FOG
BALTIMORE      PTSUNNY   83  76  79 SW7       29.84S HX  91
WASHINGTON DC  PTSUNNY   84  74  71 S9        29.87R HX  91

$$


USA.gov is the U.S. government's official web portal to all federal, state and local government web resources and services.